Location: Recife
(8.0585°S, 34.8848°W)
Time: 11:01:55
(UTC-03:00)

Vanguard 1 - Pass Details

Date: 14 April 2026
Orbit: 654 x 3817 km, 34.2° (Epoch: 14 May)

Event Time Altitude Azimuth Distance (km) Brightness Sun altitude
Rises 18:23:25 0° 232° (SW) 5,204 14.5 -16.9°
Reaches altitude 10° 18:26:12 10° 231° (SW) 4,531 14.0 -17.6°
Maximum altitude 18:40:13 83° 143° (SE) 3,053 12.3 -21.1°
Enters shadow 19:02:43 11° 56° (NE) 6,816 13.9 -26.6°
